Content
SEND FEEDBACK

Daily
Averages
Monthly
Summary
United States of America

SELBY, SOUTH DAKOTA


Home > North America > United States > South Dakota
Elevation: 1898 feet     Latitude: 45 30N     Longitude: 100 02W

WEATHER
 
SELECT A DAY
Number of Records: 181,623;   Date Range: 1/2/95 - 12/18/14
 
SHARE

PRINT THIS DATA

[ ← Previous Day ]
WEATHER ALMANAC - JANUARY 31, 2013
[ Next Day → ]
[ °C ]   °F
Weather ElementAverageHighLow
Temperature-8.9 °F-2.9 °F (2:52 pm)-13 °F (7:24 am)
Dewpoint-18.1 °F-14.1 °F (1:52 am)-23.1 °F (8:52 am)
Humidity64.4 %72 % (3:52 am)54 % (1:52 pm)
Barometer30.28 in30.44 in (11:52 am)30.02 in (3:47 am)
Wind Speed17.9 mph32.2 mph (7:24 am)
Wind Gust40.3 mph (7:24 am)
Weather ElementAverage
Visibility7.9 mi
Wind DirectionWNW (281.9 °)

Weather ElementTotal
Precipitation---
Heating Degree Days73 (Base 65)
Averaged from 31 records on January 31, 2013
WEATHER CONDITIONS BREAKOUT
WIND DIRECTION BREAKOUT
WEATHER BY HOUR - JANUARY 31, 2013
[ °C ]   °F
Local TimeTemperatureDewpointHumidityBarometerVisibilityWind DirectionWind SpeedGust SpeedPrecipitationEventsConditions
1:52 AM-5.1 °F-14.1 °F65 %30.12 in10.0 miNNW (330°)17.3 mph24.2 mph0.00 inOvercast
2:52 AM-6.0 °F-15.0 °F65 %30.14 in7.0 miNNW (330°)20.7 mph31.1 mph0.00 inOvercast
3:47 AM-7.6 °F-14.8 °F71 %30.02 in2.0 miNNW (330°)19.6 mph26.5 mph0.00 inSnowLight Snow
3:52 AM-7.1 °F-14.1 °F72 %30.17 in2.0 miNNW (330°)19.6 mph28.8 mph0.00 inSnowLight Snow
4:23 AM-7.6 °F-16.6 °F65 %30.02 in5.0 miNNW (340°)23.0 mph32.2 mph0.00 inOvercast
4:31 AM-7.6 °F-16.6 °F65 %30.03 in8.0 miNNW (330°)24.2 mph31.1 mph0.00 inOvercast
4:52 AM-8.0 °F-16.1 °F68 %30.20 in7.0 miNNW (330°)25.3 mph35.7 mph0.00 inOvercast
5:18 AM-9.4 °F-16.6 °F71 %30.07 in5.0 miNW (320°)24.2 mphHaze
5:52 AM-11.0 °F-18.9 °F68 %30.25 in7.0 miNW (320°)24.2 mph34.5 mph0.00 inOvercast
6:36 AM-11.2 °F-20.2 °F64 %30.11 in6.0 miNNW (340°)25.3 mph32.2 mphHaze
6:47 AM-11.2 °F-20.2 °F64 %30.11 in5.0 miNNW (330°)25.3 mph34.5 mphHaze
6:52 AM-11.9 °F-20.9 °F64 %30.27 in6.0 miNNW (330°)31.1 mph34.5 mphHaze
7:24 AM-13.0 °F-20.2 °F70 %30.13 in2.5 miNNW (330°)32.2 mph40.3 mphHaze
7:33 AM-13.0 °F-20.2 °F70 %30.14 in4.0 miNNW (330°)29.9 mph39.1 mphHaze
7:52 AM-13.0 °F-22.0 °F64 %30.33 in9.0 miNNW (330°)24.2 mph34.5 mphScattered Clouds
8:52 AM-13.0 °F-23.1 °F61 %30.37 in10.0 miNW (320°)25.3 mph32.2 mphClear
9:52 AM-11.9 °F-22.0 °F61 %30.42 in10.0 miNNW (330°)15.0 mph21.9 mphClear
10:52 AM-9.0 °F-20.0 °F59 %30.43 in10.0 miNNW (340°)18.4 mph25.3 mphClear
11:52 AM-8.0 °F-18.9 °F59 %30.44 in10.0 miNW (320°)19.6 mphClear
12:52 PM-6.0 °F-17.0 °F59 %30.41 in10.0 miNNW (330°)21.9 mph27.6 mphClear
1:52 PM-4.0 °F-17.0 °F54 %30.41 in10.0 miNNW (330°)17.3 mph21.9 mphClear
2:52 PM-2.9 °F-16.1 °F54 %30.41 in10.0 miNW (310°)12.7 mphClear
3:52 PM-2.9 °F-15.0 °F56 %30.40 in10.0 miWNW (300°)13.8 mphClear
4:52 PM-2.9 °F-15.0 °F56 %30.39 in10.0 miNW (320°)13.8 mphClear
5:52 PM-6.0 °F-17.0 °F59 %30.41 in10.0 miNorth (360°)6.9 mphClear
6:52 PM-9.0 °F-18.0 °F65 %30.42 in10.0 miNorth (360°)8.1 mphClear
7:52 PM-11.9 °F-20.0 °F67 %30.41 in10.0 miNNE (20°)5.8 mphClear
8:52 PM-11.9 °F-20.0 °F67 %30.40 in10.0 miNorth (10°)3.5 mphClear
9:52 PM-13.0 °F-20.0 °F71 %30.40 in10.0 miCalmMostly Cloudy
10:52 PM-13.0 °F-20.0 °F71 %30.37 in10.0 miCalmClear
11:52 PM-9.0 °F-16.1 °F71 %30.35 in10.0 miSE (140°)5.8 mphOvercast
Hourly data recorded from KMBG, located miles away from Selby, South Dakota







STORIES FROM OUR PARTNERS